17-08-2023, 00:00:04,    117,    0.0,   14.1,   0.00,   0.00, 1017.6,   66.2, -999.0
17-08-2023, 00:00:14,    117,    0.0,   14.1,   0.00,   0.00, 1017.6,   66.4, -999.0
17-08-2023, 00:00:24,    118,    0.0,   14.2,   0.00,   0.00, 1017.6,   66.4, -999.0
17-08-2023, 00:00:34,    117,    0.0,   14.2,   0.00,   0.00, 1017.6,   66.5, -999.0
17-08-2023, 00:00:44,    117,    0.0,   14.0,   0.00,   0.00, 1017.6,   66.6, -999.0
17-08-2023, 00:00:54,    117,    0.0,   14.1,   0.00,   0.00, 1017.6,   66.7, -999.0
17-08-2023, 00:01:03,    117,    0.0,   14.2,   0.00,   0.00, 1017.6,   66.7, -999.0
17-08-2023, 00:01:14,    117,    0.0,   14.1,   0.00,   0.00, 1017.6,   66.7, -999.0
17-08-2023, 00:01:24,    117,    0.0,   14.1,   0.00,   0.00, 1017.6,   66.7, -999.0
17-08-2023, 00:01:33,    117,    0.0,   14.1,   0.00,   0.00, 1017.6,   66.6, -999.0
17-08-2023, 00:01:43,    117,    0.0,   14.1,   0.00,   0.00, 1017.6,   66.7, -999.0
17-08-2023, 00:01:54,    117,    0.0,   14.1,   0.00,   0.00, 1017.6,   66.8, -999.0
17-08-2023, 00:02:03,    117,    0.0,   14.1,   0.00,   0.00, 1017.6,   67.0, -999.0
17-08-2023, 00:02:13,    117,    0.0,   14.2,   0.00,   0.00, 1017.6,   67.0, -999.0
17-08-2023, 00:02:23,    117,    0.0,   14.2,   0.00,   0.00, 1017.6,   67.0, -999.0
17-08-2023, 00:02:34,    117,    0.0,   14.1,   0.00,   0.00, 1017.6,   67.0, -999.0
17-08-2023, 00:02:43,    117,    0.0,   14.2,   0.00,   0.00, 1017.6,   67.1, -999.0
17-08-2023, 00:02:53,    117,    0.0,   14.2,   0.00,   0.00, 1017.6,   67.1, -999.0
17-08-2023, 00:03:03,    117,    0.0,   14.2,   0.00,   0.00, 1017.6,   67.2, -999.0
17-08-2023, 00:03:13,    117,    0.0,   14.2,   0.00,   0.00, 1017.6,   67.1, -999.0
17-08-2023, 00:03:23,    117,    0.0,   14.2,   0.00,   0.00, 1017.6,   67.1, -999.0
17-08-2023, 00:03:33,    117,    0.0,   14.2,   0.00,   0.00, 1017.6,   66.9, -999.0
17-08-2023, 00:03:43,    117,    0.0,   14.2,   0.00,   0.00, 1017.6,   67.0, -999.0
17-08-2023, 00:03:53,    118,    0.0,   14.2,   0.00,   0.00, 1017.6,   67.0, -999.0
17-08-2023, 00:04:03,     54,    0.8,   14.2,   0.00,   0.00, 1017.6,   67.3, -999.0
17-08-2023, 00:04:13,     54,    0.3,   14.2,   0.00,   0.00, 1017.5,   67.2, -999.0
17-08-2023, 00:04:23,     54,    0.0,   14.2,   0.00,   0.00, 1017.6,   67.1, -999.0
17-08-2023, 00:04:33,     55,    0.0,   14.2,   0.00,   0.00, 1017.6,   67.1, -999.0
17-08-2023, 00:04:43,     54,    0.0,   14.1,   0.00,   0.00, 1017.6,   67.0, -999.0
17-08-2023, 00:04:53,     54,    0.0,   14.2,   0.00,   0.00, 1017.6,   67.1, -999.0
17-08-2023, 00:05:03,     54,    0.0,   14.2,   0.00,   0.00, 1017.6,   67.1, -999.0
17-08-2023, 00:05:13,     54,    0.0,   14.1,   0.00,   0.00, 1017.6,   67.2, -999.0
17-08-2023, 00:05:23,     54,    0.0,   14.2,   0.00,   0.00, 1017.6,   67.2, -999.0
17-08-2023, 00:05:33,     54,    0.0,   14.1,   0.00,   0.00, 1017.5,   67.4, -999.0
17-08-2023, 00:05:43,     54,    0.0,   14.2,   0.00,   0.00, 1017.6,   67.5, -999.0
17-08-2023, 00:05:53,     54,    0.0,   14.2,   0.00,   0.00, 1017.5,   67.6, -999.0
17-08-2023, 00:06:03,     54,    0.0,   14.3,   0.00,   0.00, 1017.5,   67.5, -999.0
17-08-2023, 00:06:13,     54,    0.0,   14.2,   0.00,   0.00, 1017.6,   67.7, -999.0
17-08-2023, 00:06:23,     54,    0.0,   14.3,   0.00,   0.00, 1017.5,   67.5, -999.0
17-08-2023, 00:06:33,     54,    0.0,   14.2,   0.00,   0.00, 1017.5,   67.6, -999.0
17-08-2023, 00:06:43,     54,    0.0,   14.3,   0.00,   0.00, 1017.5,   67.6, -999.0
17-08-2023, 00:06:52,     54,    0.0,   14.3,   0.00,   0.00, 1017.5,   67.6, -999.0
17-08-2023, 00:07:03,     55,    0.0,   14.3,   0.00,   0.00, 1017.5,   67.4, -999.0
17-08-2023, 00:07:13,     54,    0.0,   14.3,   0.00,   0.00, 1017.5,   67.3, -999.0
17-08-2023, 00:07:23,     54,    0.0,   14.4,   0.00,   0.00, 1017.5,   67.2, -999.0
17-08-2023, 00:07:32,     54,    0.0,   14.4,   0.00,   0.00, 1017.5,   67.2, -999.0
17-08-2023, 00:07:43,     54,    0.0,   14.4,   0.00,   0.00, 1017.5,   67.2, -999.0
17-08-2023, 00:07:53,     54,    0.0,   14.3,   0.00,   0.00, 1017.5,   67.1, -999.0
17-08-2023, 00:08:02,     54,    0.0,   14.4,   0.00,   0.00, 1017.5,   67.2, -999.0
17-08-2023, 00:08:12,     54,    0.0,   14.4,   0.00,   0.00, 1017.5,   67.1, -999.0
17-08-2023, 00:08:23,     55,    0.0,   14.4,   0.00,   0.00, 1017.5,   67.1, -999.0
17-08-2023, 00:08:32,     54,    0.0,   14.4,   0.00,   0.00, 1017.5,   67.2, -999.0
17-08-2023, 00:08:42,     54,    0.0,   14.4,   0.00,   0.00, 1017.5,   67.2, -999.0
17-08-2023, 00:08:52,     54,    0.0,   14.4,   0.00,   0.00, 1017.5,   67.1, -999.0
17-08-2023, 00:09:02,     54,    0.0,   14.4,   0.00,   0.00, 1017.5,   67.1, -999.0
17-08-2023, 00:09:12,     54,    0.0,   14.4,   0.00,   0.00, 1017.5,   67.0, -999.0
17-08-2023, 00:09:22,     54,    0.0,   14.3,   0.00,   0.00, 1017.5,   67.1, -999.0
17-08-2023, 00:09:32,     54,    0.0,   14.3,   0.00,   0.00, 1017.5,   67.1, -999.0
17-08-2023, 00:09:42,     54,    0.0,   14.3,   0.00,   0.00, 1017.5,   67.2, -999.0
17-08-2023, 00:09:52,     54,    0.0,   14.3,   0.00,   0.00, 1017.5,   67.2, -999.0
17-08-2023, 00:10:02,     54,    0.0,   14.3,   0.00,   0.00, 1017.5,   67.2, -999.0
17-08-2023, 00:10:12,     54,    0.0,   14.3,   0.00,   0.00, 1017.5,   67.2, -999.0
17-08-2023, 00:10:22,     95,    0.7,   14.4,   0.00,   0.00, 1017.5,   67.5, -999.0
17-08-2023, 00:10:32,     95,    0.5,   14.4,   0.00,   0.00, 1017.5,   67.5, -999.0
17-08-2023, 00:10:42,     95,    0.0,   14.4,   0.00,   0.00, 1017.5,   67.2, -999.0
17-08-2023, 00:10:53,     95,    0.0,   14.3,   0.00,   0.00, 1017.5,   67.3, -999.0
17-08-2023, 00:11:02,     95,    0.0,   14.3,   0.00,   0.00, 1017.5,   67.2, -999.0
17-08-2023, 00:11:12,     95,    0.0,   14.3,   0.00,   0.00, 1017.5,   67.3, -999.0
17-08-2023, 00:11:22,     95,    0.0,   14.3,   0.00,   0.00, 1017.4,   67.3, -999.0
17-08-2023, 00:11:32,     95,    0.0,   14.3,   0.00,   0.00, 1017.4,   67.3, -999.0
17-08-2023, 00:11:42,     95,    0.0,   14.1,   0.00,   0.00, 1017.4,   67.4, -999.0
17-08-2023, 00:11:52,     95,    0.0,   14.2,   0.00,   0.00, 1017.4,   67.4, -999.0
17-08-2023, 00:12:02,     95,    0.0,   14.2,   0.00,   0.00, 1017.4,   67.4, -999.0
17-08-2023, 00:12:12,     95,    0.0,   14.2,   0.00,   0.00, 1017.4,   67.4, -999.0
17-08-2023, 00:12:22,     95,    0.0,   14.2,   0.00,   0.00, 1017.5,   67.4, -999.0
17-08-2023, 00:12:32,     95,    0.0,   14.2,   0.00,   0.00, 1017.4,   67.5, -999.0
17-08-2023, 00:12:42,     95,    0.0,   14.2,   0.00,   0.00, 1017.4,   67.5, -999.0
17-08-2023, 00:12:52,     95,    0.0,   14.2,   0.00,   0.00, 1017.4,   67.5, -999.0
17-08-2023, 00:13:02,     95,    0.0,   14.2,   0.00,   0.00, 1017.4,   67.6, -999.0
17-08-2023, 00:13:12,     95,    0.0,   14.2,   0.00,   0.00, 1017.4,   67.7, -999.0
17-08-2023, 00:13:21,     93,    0.0,   14.2,   0.00,   0.00, 1017.4,   67.8, -999.0
17-08-2023, 00:13:32,     95,    0.0,   14.1,   0.00,   0.00, 1017.4,   68.0, -999.0
17-08-2023, 00:13:42,     95,    0.2,   14.2,   0.00,   0.00, 1017.5,   68.3, -999.0
17-08-2023, 00:13:51,     95,    0.0,   14.1,   0.00,   0.00, 1017.4,   68.3, -999.0
17-08-2023, 00:14:01,     95,    0.0,   14.1,   0.00,   0.00, 1017.4,   68.5, -999.0
17-08-2023, 00:14:12,     94,    0.0,   14.2,   0.00,   0.00, 1017.4,   68.8, -999.0
17-08-2023, 00:14:21,     95,    0.2,   14.2,   0.00,   0.00, 1017.5,   69.0, -999.0
17-08-2023, 00:14:31,     93,    0.1,   14.2,   0.00,   0.00, 1017.5,   68.9, -999.0
17-08-2023, 00:14:41,     95,    0.0,   14.2,   0.00,   0.00, 1017.4,   68.8, -999.0
17-08-2023, 00:14:52,     95,    0.0,   14.2,   0.00,   0.00, 1017.4,   68.8, -999.0
17-08-2023, 00:15:01,     95,    0.0,   14.2,   0.00,   0.00, 1017.4,   68.8, -999.0
17-08-2023, 00:15:11,     95,    0.0,   14.1,   0.00,   0.00, 1017.4,   68.8, -999.0
17-08-2023, 00:15:21,     94,    0.0,   14.1,   0.00,   0.00, 1017.5,   68.8, -999.0
17-08-2023, 00:15:31,     95,    0.0,   14.1,   0.00,   0.00, 1017.5,   68.9, -999.0
17-08-2023, 00:15:41,     95,    0.0,   14.1,   0.00,   0.00, 1017.4,   68.8, -999.0
17-08-2023, 00:15:51,     95,    0.0,   14.1,   0.00,   0.00, 1017.4,   69.0, -999.0
17-08-2023, 00:16:01,     94,    0.0,   14.1,   0.00,   0.00, 1017.4,   69.1, -999.0
17-08-2023, 00:16:11,     95,    0.0,   14.1,   0.00,   0.00, 1017.5,   69.2, -999.0
17-08-2023, 00:16:21,     94,    0.2,   14.1,   0.00,   0.00, 1017.5,   69.5, -999.0
17-08-2023, 00:16:31,     94,    0.0,   14.0,   0.00,   0.00, 1017.5,   69.4, -999.0
17-08-2023, 00:16:41,     95,    0.0,   14.0,   0.00,   0.00, 1017.5,   69.6, -999.0
17-08-2023, 00:16:51,     94,    0.0,   14.1,   0.00,   0.00, 1017.5,   69.7, -999.0
17-08-2023, 00:17:01,     94,    0.0,   14.1,   0.00,   0.00, 1017.4,   69.7, -999.0
17-08-2023, 00:17:11,     94,    0.0,   14.0,   0.00,   0.00, 1017.5,   69.9, -999.0
17-08-2023, 00:17:21,     94,    0.0,   14.0,   0.00,   0.00, 1017.5,   70.0, -999.0
17-08-2023, 00:17:31,     95,    0.0,   14.0,   0.00,   0.00, 1017.5,   70.2, -999.0
17-08-2023, 00:17:41,     94,    0.0,   14.0,   0.00,   0.00, 1017.4,   70.2, -999.0
17-08-2023, 00:17:51,     95,    0.0,   14.0,   0.00,   0.00, 1017.5,   70.3, -999.0
17-08-2023, 00:18:01,     94,    0.0,   14.1,   0.00,   0.00, 1017.4,   70.4, -999.0
17-08-2023, 00:18:11,     93,    0.0,   14.0,   0.00,   0.00, 1017.4,   70.6, -999.0
17-08-2023, 00:18:21,     94,    0.0,   14.0,   0.00,   0.00, 1017.4,   70.7, -999.0
17-08-2023, 00:18:31,     95,    0.0,   14.0,   0.00,   0.00, 1017.5,   71.1, -999.0
17-08-2023, 00:18:41,     94,    0.0,   14.1,   0.00,   0.00, 1017.4,   71.2, -999.0
17-08-2023, 00:18:51,     94,    0.0,   14.0,   0.00,   0.00, 1017.4,   71.2, -999.0
17-08-2023, 00:19:01,     95,    0.9,   14.1,   0.00,   0.00, 1017.6,   71.8, -999.0
17-08-2023, 00:19:10,     95,    0.0,   14.0,   0.00,   0.00, 1017.5,   71.8, -999.0
17-08-2023, 00:19:21,     95,    0.0,   14.1,   0.00,   0.00, 1017.5,   71.7, -999.0
17-08-2023, 00:19:31,     95,    0.0,   14.1,   0.00,   0.00, 1017.5,   71.6, -999.0
17-08-2023, 00:19:40,     95,    0.0,   14.1,   0.00,   0.00, 1017.5,   71.4, -999.0
17-08-2023, 00:19:50,     95,    0.0,   14.1,   0.00,   0.00, 1017.5,   71.4, -999.0
17-08-2023, 00:20:01,     95,    0.0,   14.0,   0.00,   0.00, 1017.5,   71.3, -999.0
17-08-2023, 00:20:11,     95,    0.0,   14.0,   0.00,   0.00, 1017.4,   71.3, -999.0
17-08-2023, 00:20:20,     95,    0.0,   14.0,   0.00,   0.00, 1017.5,   71.4, -999.0
17-08-2023, 00:20:30,     95,    0.0,   14.1,   0.00,   0.00, 1017.4,   71.5, -999.0
17-08-2023, 00:20:41,     95,    0.0,   14.0,   0.00,   0.00, 1017.5,   71.7, -999.0
17-08-2023, 00:20:50,     95,    0.0,   14.0,   0.00,   0.00, 1017.4,   71.8, -999.0
17-08-2023, 00:21:00,     95,    0.0,   13.9,   0.00,   0.00, 1017.5,   71.9, -999.0
17-08-2023, 00:21:10,     95,    0.3,   14.1,   0.00,   0.00, 1017.6,   72.4, -999.0
17-08-2023, 00:21:20,     95,    0.0,   14.1,   0.00,   0.00, 1017.4,   72.3, -999.0
17-08-2023, 00:21:30,     94,    0.0,   14.0,   0.00,   0.00, 1017.5,   72.4, -999.0
17-08-2023, 00:21:40,     95,    0.0,   14.1,   0.00,   0.00, 1017.5,   72.2, -999.0
17-08-2023, 00:21:50,     95,    0.0,   14.0,   0.00,   0.00, 1017.5,   72.3, -999.0
17-08-2023, 00:22:00,     95,    0.0,   14.1,   0.00,   0.00, 1017.5,   72.2, -999.0
17-08-2023, 00:22:10,     95,    0.0,   14.0,   0.00,   0.00, 1017.5,   72.2, -999.0
17-08-2023, 00:22:20,     95,    0.0,   14.1,   0.00,   0.00, 1017.4,   72.2, -999.0
17-08-2023, 00:22:30,     95,    0.0,   14.0,   0.00,   0.00, 1017.5,   72.3, -999.0
17-08-2023, 00:22:40,     95,    0.0,   14.0,   0.00,   0.00, 1017.5,   72.5, -999.0
17-08-2023, 00:22:50,     95,    0.0,   14.0,   0.00,   0.00, 1017.5,   72.4, -999.0
17-08-2023, 00:23:00,     95,    0.0,   14.0,   0.00,   0.00, 1017.5,   72.4, -999.0
17-08-2023, 00:23:10,     95,    0.0,   14.0,   0.00,   0.00, 1017.5,   72.4, -999.0
17-08-2023, 00:23:20,     95,    0.0,   14.0,   0.00,   0.00, 1017.5,   72.5, -999.0
17-08-2023, 00:23:30,     95,    0.0,   14.0,   0.00,   0.00, 1017.5,   72.6, -999.0
17-08-2023, 00:23:40,     95,    0.0,   14.1,   0.00,   0.00, 1017.4,   72.5, -999.0
17-08-2023, 00:23:50,     95,    0.0,   14.0,   0.00,   0.00, 1017.5,   72.6, -999.0
17-08-2023, 00:24:00,     95,    0.0,   13.9,   0.00,   0.00, 1017.5,   72.9, -999.0
17-08-2023, 00:24:10,     93,    0.0,   14.0,   0.00,   0.00, 1017.5,   72.9, -999.0
17-08-2023, 00:24:20,     95,    0.0,   14.0,   0.00,   0.00, 1017.4,   73.0, -999.0
17-08-2023, 00:24:30,     95,    0.0,   14.0,   0.00,   0.00, 1017.4,   72.9, -999.0
17-08-2023, 00:24:40,     95,    0.0,   13.9,   0.00,   0.00, 1017.5,   72.9, -999.0
17-08-2023, 00:24:50,     95,    0.0,   13.9,   0.00,   0.00, 1017.5,   72.8, -999.0
17-08-2023, 00:25:00,     95,    0.0,   14.0,   0.00,   0.00, 1017.5,   72.7, -999.0
17-08-2023, 00:25:10,     94,    0.0,   13.9,   0.00,   0.00, 1017.5,   73.1, -999.0
17-08-2023, 00:25:20,     95,    0.0,   14.0,   0.00,   0.00, 1017.4,   73.4, -999.0
17-08-2023, 00:25:30,     95,    0.0,   14.0,   0.00,   0.00, 1017.4,   73.3, -999.0
17-08-2023, 00:25:39,     95,    0.0,   14.0,   0.00,   0.00, 1017.4,   73.3, -999.0
17-08-2023, 00:25:50,     95,    0.0,   14.0,   0.00,   0.00, 1017.5,   73.7, -999.0
17-08-2023, 00:26:00,     95,    0.0,   14.0,   0.00,   0.00, 1017.5,   73.7, -999.0
17-08-2023, 00:26:09,     95,    0.0,   13.9,   0.00,   0.00, 1017.4,   73.6, -999.0
17-08-2023, 00:26:19,     95,    0.0,   13.9,   0.00,   0.00, 1017.4,   73.6, -999.0
17-08-2023, 00:26:30,     95,    0.0,   14.0,   0.00,   0.00, 1017.5,   73.6, -999.0
17-08-2023, 00:26:40,     94,    0.0,   14.0,   0.00,   0.00, 1017.4,   73.7, -999.0
17-08-2023, 00:26:49,    104,    0.0,   14.0,   0.00,   0.00, 1017.5,   74.0, -999.0
17-08-2023, 00:26:59,     95,    0.0,   14.0,   0.00,   0.00, 1017.5,   74.1, -999.0
17-08-2023, 00:27:10,     95,    0.0,   14.0,   0.00,   0.00, 1017.5,   74.0, -999.0
17-08-2023, 00:27:19,     95,    0.0,   13.9,   0.00,   0.00, 1017.5,   74.1, -999.0
17-08-2023, 00:27:29,     95,    0.0,   13.9,   0.00,   0.00, 1017.5,   74.4, -999.0
17-08-2023, 00:27:39,     95,    0.0,   14.0,   0.00,   0.00, 1017.5,   74.5, -999.0
17-08-2023, 00:27:49,     95,    0.0,   14.0,   0.00,   0.00, 1017.5,   74.4, -999.0
17-08-2023, 00:27:59,     95,    0.0,   14.0,   0.00,   0.00, 1017.5,   74.4, -999.0
17-08-2023, 00:28:09,     95,    0.0,   14.0,   0.00,   0.00, 1017.5,   74.3, -999.0
17-08-2023, 00:28:19,     94,    0.0,   14.0,   0.00,   0.00, 1017.5,   74.4, -999.0
17-08-2023, 00:28:29,     95,    0.0,   14.0,   0.00,   0.00, 1017.5,   74.5, -999.0
17-08-2023, 00:28:39,     95,    0.0,   14.0,   0.00,   0.00, 1017.5,   74.6, -999.0
17-08-2023, 00:28:49,     95,    0.0,   14.0,   0.00,   0.00, 1017.5,   74.5, -999.0
17-08-2023, 00:28:59,     95,    0.0,   14.0,   0.00,   0.00, 1017.5,   74.6, -999.0
17-08-2023, 00:29:09,     94,    0.0,   14.0,   0.00,   0.00, 1017.5,   74.7, -999.0
17-08-2023, 00:29:19,     95,    0.0,   14.0,   0.00,   0.00, 1017.5,   74.6, -999.0
17-08-2023, 00:29:29,     95,    0.0,   14.0,   0.00,   0.00, 1017.5,   74.6, -999.0
17-08-2023, 00:29:39,     89,    0.0,   14.1,   0.00,   0.00, 1017.5,   74.6, -999.0
17-08-2023, 00:29:49,     95,    0.0,   14.1,   0.00,   0.00, 1017.5,   74.5, -999.0
17-08-2023, 00:29:59,    104,    0.2,   14.1,   0.00,   0.00, 1017.5,   74.7, -999.0
17-08-2023, 00:30:09,    151,    0.1,   14.1,   0.00,   0.00, 1017.5,   75.0, -999.0
17-08-2023, 00:30:19,    150,    0.0,   14.1,   0.00,   0.00, 1017.5,   74.6, -999.0
17-08-2023, 00:30:29,    150,    0.0,   14.1,   0.00,   0.00, 1017.5,   74.6, -999.0
17-08-2023, 00:30:39,    151,    0.0,   14.1,   0.00,   0.00, 1017.5,   74.8, -999.0
17-08-2023, 00:30:49,    150,    0.0,   14.1,   0.00,   0.00, 1017.5,   74.5, -999.0
17-08-2023, 00:30:59,    151,    0.0,   14.1,   0.00,   0.00, 1017.5,   74.5, -999.0
17-08-2023, 00:31:09,    150,    0.0,   14.1,   0.00,   0.00, 1017.5,   74.5, -999.0
17-08-2023, 00:31:19,    151,    0.0,   14.1,   0.00,   0.00, 1017.5,   74.5, -999.0
17-08-2023, 00:31:28,    150,    0.2,   14.1,   0.00,   0.00, 1017.6,   74.7, -999.0
17-08-2023, 00:31:39,    150,    0.0,   14.1,   0.00,   0.00, 1017.5,   74.9, -999.0
17-08-2023, 00:31:49,    150,    0.2,   14.1,   0.00,   0.00, 1017.5,   75.2, -999.0
17-08-2023, 00:31:58,    150,    0.0,   14.1,   0.00,   0.00, 1017.5,   75.1, -999.0
17-08-2023, 00:32:08,    150,    0.0,   14.1,   0.00,   0.00, 1017.5,   75.1, -999.0
17-08-2023, 00:32:19,    150,    0.1,   14.0,   0.00,   0.00, 1017.5,   75.3, -999.0
17-08-2023, 00:32:28,    150,    0.0,   14.0,   0.00,   0.00, 1017.5,   75.3, -999.0
17-08-2023, 00:32:38,    150,    0.0,   14.1,   0.00,   0.00, 1017.5,   75.3, -999.0
17-08-2023, 00:32:48,    150,    0.0,   14.1,   0.00,   0.00, 1017.5,   75.0, -999.0
17-08-2023, 00:32:59,    150,    0.0,   14.1,   0.00,   0.00, 1017.5,   75.0, -999.0
17-08-2023, 00:33:08,    121,    0.1,   14.1,   0.00,   0.00, 1017.6,   75.3, -999.0
17-08-2023, 00:33:18,    121,    0.0,   14.1,   0.00,   0.00, 1017.5,   75.3, -999.0
17-08-2023, 00:33:29,    121,    0.0,   14.1,   0.00,   0.00, 1017.5,   75.2, -999.0
17-08-2023, 00:33:38,    122,    0.0,   14.1,   0.00,   0.00, 1017.5,   75.1, -999.0
17-08-2023, 00:33:48,    122,    0.0,   14.1,   0.00,   0.00, 1017.5,   75.0, -999.0
17-08-2023, 00:33:58,    121,    0.0,   14.1,   0.00,   0.00, 1017.5,   75.1, -999.0
17-08-2023, 00:34:08,    122,    0.0,   14.1,   0.00,   0.00, 1017.5,   75.0, -999.0
17-08-2023, 00:34:18,    122,    0.0,   14.1,   0.00,   0.00, 1017.5,   75.0, -999.0
17-08-2023, 00:34:28,    121,    0.0,   14.0,   0.00,   0.00, 1017.5,   75.3, -999.0
17-08-2023, 00:34:38,    121,    0.0,   14.0,   0.00,   0.00, 1017.5,   75.4, -999.0
17-08-2023, 00:34:48,    122,    0.0,   14.0,   0.00,   0.00, 1017.5,   75.4, -999.0
17-08-2023, 00:34:58,    121,    0.0,   14.0,   0.00,   0.00, 1017.5,   75.5, -999.0
17-08-2023, 00:35:08,    121,    0.0,   14.1,   0.00,   0.00, 1017.5,   75.7, -999.0
17-08-2023, 00:35:18,    121,    0.0,   14.0,   0.00,   0.00, 1017.6,   75.7, -999.0
17-08-2023, 00:35:28,    121,    0.1,   14.1,   0.00,   0.00, 1017.5,   75.8, -999.0
17-08-2023, 00:35:38,    121,    0.0,   14.0,   0.00,   0.00, 1017.5,   75.7, -999.0
17-08-2023, 00:35:48,    122,    0.0,   14.1,   0.00,   0.00, 1017.5,   75.6, -999.0
17-08-2023, 00:35:58,    121,    0.8,   14.1,   0.00,   0.00, 1017.6,   76.0, -999.0
17-08-2023, 00:36:08,    121,    0.1,   14.1,   0.00,   0.00, 1017.6,   76.2, -999.0
17-08-2023, 00:36:18,    121,    0.0,   14.0,   0.00,   0.00, 1017.5,   76.0, -999.0
17-08-2023, 00:36:28,    121,    0.0,   14.1,   0.00,   0.00, 1017.5,   75.7, -999.0
17-08-2023, 00:36:38,    121,    0.0,   14.1,   0.00,   0.00, 1017.5,   75.5, -999.0
17-08-2023, 00:36:48,    121,    0.0,   14.0,   0.00,   0.00, 1017.5,   75.3, -999.0
17-08-2023, 00:36:58,    121,    0.0,   14.0,   0.00,   0.00, 1017.5,   75.4, -999.0
17-08-2023, 00:37:08,    121,    0.0,   14.1,   0.00,   0.00, 1017.5,   75.5, -999.0
17-08-2023, 00:37:17,    121,    0.0,   14.1,   0.00,   0.00, 1017.5,   75.2, -999.0
17-08-2023, 00:37:28,    121,    0.0,   14.1,   0.00,   0.00, 1017.5,   75.3, -999.0
17-08-2023, 00:37:38,    121,    0.0,   14.1,   0.00,   0.00, 1017.5,   75.2, -999.0
17-08-2023, 00:37:47,    121,    0.0,   14.0,   0.00,   0.00, 1017.5,   75.2, -999.0
17-08-2023, 00:37:57,    121,    0.0,   14.1,   0.00,   0.00, 1017.6,   75.3, -999.0
17-08-2023, 00:38:08,    122,    0.0,   14.1,   0.00,   0.00, 1017.6,   75.4, -999.0
17-08-2023, 00:38:18,    121,    0.0,   14.1,   0.00,   0.00, 1017.6,   75.4, -999.0
17-08-2023, 00:38:27,    121,    0.0,   14.1,   0.00,   0.00, 1017.5,   75.5, -999.0
17-08-2023, 00:38:38,    121,    0.0,   14.0,   0.00,   0.00, 1017.5,   75.4, -999.0
17-08-2023, 00:38:48,    121,    0.0,   14.0,   0.00,   0.00, 1017.5,   75.4, -999.0
17-08-2023, 00:38:57,    120,    0.0,   14.1,   0.00,   0.00, 1017.6,   75.3, -999.0
17-08-2023, 00:39:07,    121,    0.0,   14.1,   0.00,   0.00, 1017.5,   75.3, -999.0
17-08-2023, 00:39:18,    121,    0.0,   14.0,   0.00,   0.00, 1017.5,   75.5, -999.0
17-08-2023, 00:39:27,    121,    0.0,   14.1,   0.00,   0.00, 1017.6,   75.5, -999.0
17-08-2023, 00:39:37,    121,    0.0,   14.0,   0.00,   0.00, 1017.6,   75.5, -999.0
17-08-2023, 00:39:47,    121,    0.0,   14.1,   0.00,   0.00, 1017.6,   75.3, -999.0
17-08-2023, 00:39:57,    121,    0.0,   14.1,   0.00,   0.00, 1017.6,   75.1, -999.0
17-08-2023, 00:40:07,    121,    0.0,   14.1,   0.00,   0.00, 1017.6,   75.1, -999.0
17-08-2023, 00:40:17,    121,    0.0,   14.1,   0.00,   0.00, 1017.6,   75.1, -999.0
17-08-2023, 00:40:27,    121,    0.0,   14.1,   0.00,   0.00, 1017.6,   75.1, -999.0
17-08-2023, 00:40:37,    121,    0.0,   14.0,   0.00,   0.00, 1017.6,   75.1, -999.0
17-08-2023, 00:40:47,    121,    0.0,   14.0,   0.00,   0.00, 1017.6,   75.2, -999.0
17-08-2023, 00:40:57,    121,    0.0,   14.1,   0.00,   0.00, 1017.6,   75.5, -999.0
17-08-2023, 00:41:07,    121,    0.0,   14.1,   0.00,   0.00, 1017.6,   75.6, -999.0
17-08-2023, 00:41:17,    121,    0.0,   14.1,   0.00,   0.00, 1017.6,   75.6, -999.0
17-08-2023, 00:41:27,    121,    0.0,   14.1,   0.00,   0.00, 1017.6,   75.4, -999.0
17-08-2023, 00:41:37,    121,    0.0,   14.0,   0.00,   0.00, 1017.6,   75.3, -999.0
17-08-2023, 00:41:47,    121,    0.0,   13.9,   0.00,   0.00, 1017.6,   75.3, -999.0
17-08-2023, 00:41:57,    121,    0.0,   13.9,   0.00,   0.00, 1017.6,   75.3, -999.0
17-08-2023, 00:42:07,    121,    0.0,   13.9,   0.00,   0.00, 1017.6,   75.5, -999.0
17-08-2023, 00:42:17,    121,    0.0,   13.7,   0.00,   0.00, 1017.6,   75.9, -999.0
17-08-2023, 00:42:27,    121,    0.0,   13.7,   0.00,   0.00, 1017.6,   75.9, -999.0
17-08-2023, 00:42:37,    121,    0.0,   13.7,   0.00,   0.00, 1017.6,   76.2, -999.0
17-08-2023, 00:42:47,    122,    0.0,   13.6,   0.00,   0.00, 1017.6,   76.5, -999.0
17-08-2023, 00:42:57,    120,    0.0,   13.6,   0.00,   0.00, 1017.6,   76.6, -999.0
17-08-2023, 00:43:07,    121,    0.0,   13.6,   0.00,   0.00, 1017.6,   77.2, -999.0
17-08-2023, 00:43:17,    121,    0.0,   13.5,   0.00,   0.00, 1017.6,   77.7, -999.0
17-08-2023, 00:43:27,    120,    0.0,   13.5,   0.00,   0.00, 1017.6,   78.0, -999.0
17-08-2023, 00:43:37,    121,    0.0,   13.5,   0.00,   0.00, 1017.6,   78.3, -999.0
17-08-2023, 00:43:47,    122,    0.0,   13.5,   0.00,   0.00, 1017.6,   78.4, -999.0
17-08-2023, 00:43:57,    121,    0.0,   13.6,   0.00,   0.00, 1017.6,   78.7, -999.0
17-08-2023, 00:44:07,    121,    0.0,   13.4,   0.00,   0.00, 1017.6,   78.8, -999.0
17-08-2023, 00:44:16,    121,    0.0,   13.5,   0.00,   0.00, 1017.6,   79.0, -999.0
17-08-2023, 00:44:27,    121,    0.0,   13.4,   0.00,   0.00, 1017.6,   79.8, -999.0
17-08-2023, 00:44:37,    121,    0.0,   13.5,   0.00,   0.00, 1017.6,   80.2, -999.0
17-08-2023, 00:44:46,    121,    0.0,   13.5,   0.00,   0.00, 1017.6,   80.6, -999.0
17-08-2023, 00:44:56,    121,    0.0,   13.5,   0.00,   0.00, 1017.6,   80.6, -999.0
17-08-2023, 00:45:07,    121,    0.0,   13.5,   0.00,   0.00, 1017.6,   80.1, -999.0
17-08-2023, 00:45:16,    121,    0.0,   13.5,   0.00,   0.00, 1017.6,   79.8, -999.0
17-08-2023, 00:45:26,    121,    0.0,   13.4,   0.00,   0.00, 1017.6,   79.6, -999.0
17-08-2023, 00:45:36,    122,    0.0,   13.4,   0.00,   0.00, 1017.6,   79.7, -999.0
17-08-2023, 00:45:47,    120,    0.0,   13.4,   0.00,   0.00, 1017.6,   80.0, -999.0
17-08-2023, 00:45:56,    121,    0.0,   13.3,   0.00,   0.00, 1017.6,   80.4, -999.0
17-08-2023, 00:46:06,    121,    0.0,   13.3,   0.00,   0.00, 1017.6,   80.9, -999.0
17-08-2023, 00:46:16,    121,    0.0,   13.4,   0.00,   0.00, 1017.6,   81.1, -999.0
17-08-2023, 00:46:26,    120,    0.0,   13.3,   0.00,   0.00, 1017.6,   81.3, -999.0
17-08-2023, 00:46:36,    121,    0.0,   13.3,   0.00,   0.00, 1017.6,   81.5, -999.0
17-08-2023, 00:46:46,    121,    0.0,   13.3,   0.00,   0.00, 1017.6,   81.7, -999.0